[[{"header":{"parameterUnit":"m.s-1","parameterCategory":1,"la1":30.2992,"la2":30.254,"lo1":-89.0895,"lo2":-89.0443,"dy":0.0025,"dx":0.0025,"nx":19,"ny":19,"refTime":"2026-05-16T09:00:00:Z","depth":0,"parameterNumber":2,"parameterNumberName":"U-component_of_WINDS"},"data":[0,0,0,-4.8191,-4.8195,-4.8376,-4.8377,-4.8606,-4.8608,0,0,0,0,0,0,0,0,0,0,0,-4.8136,-4.8137,-4.819,-4.8195,-4.8376,-4.8377,-4.8606,-4.8608,0,0,0,0,0,0,0,0,0,0,0,-4.8135,-4.8137,-4.8139,-4.8196,-4.8376,-4.8377,-4.8605,-4.8469,0,0,0,0,0,0,0,0,0,0,-4.8294,-4.8241,-4.8136,-4.8139,-4.8197,-4.8376,-4.8377,-4.8463,-4.8478,-4.8523,0,-4.8563,0,-4.8589,-4.8623,-4.8624,0,0,0,-4.8196,-4.8229,-4.8279,-4.8139,-4.8198,-4.8376,-4.8295,-4.8471,-4.8488,-4.8543,-4.8566,-4.8575,-4.8593,-4.8625,-4.8626,-4.8884,-4.8885,0,0,-4.8186,-4.8167,-4.8267,-4.829,-4.8262,-4.8289,-4.83,-4.8482,-4.8506,-4.8567,-4.858,-4.8597,-4.8626,-4.8628,-4.8883,-4.8884,0,0,0,-4.8156,-4.816,-4.8206,-4.8281,-4.8314,-4.8294,-4.8307,-4.8498,-4.8514,-4.8583,-4.86,-4.8628,-4.8631,-4.8882,-4.8883,-4.8921,0,0,0,-4.815,-4.8143,-4.8202,-4.8192,-4.831,-4.8408,-4.8319,-4.8502,-4.8523,-4.8599,-4.8628,-4.8633,-4.888,-4.8883,-4.8917,-4.894,0,0,0,-4.8124,-4.814,-4.8166,-4.8191,-4.8268,-4.8405,-4.8433,-4.8507,-4.8533,-4.8624,-4.8633,-4.888,-4.8882,-4.8914,-4.8935,-4.9,0,0,0,-4.809,-4.8197,-4.8166,-4.8292,-4.8267,-4.8428,-4.8432,-4.8553,-4.8636,-4.8629,-4.8881,-4.8883,-4.8912,-4.8931,-4.8997,-4.9049,-4.9071,0,0,-4.8214,-4.8211,-4.8287,-4.8265,-4.8427,-4.8402,-4.857,-4.8664,-4.869,-4.8818,-4.8824,-4.8918,-4.8934,-4.8999,-4.9203,-4.922,0,0,0,-4.832,-4.8373,-4.8421,-4.8499,-4.8574,-4.864,-4.871,-4.8745,-4.8855,-4.8752,-4.8962,-4.8973,-4.9011,-4.9037,-4.9051,-4.9085,-4.8896,-4.8895,-4.8895,-4.8465,-4.8494,-4.862,-4.867,-4.8747,-4.8819,-4.8883,-4.8943,-4.8949,-4.8999,-4.9035,-4.9155,-4.9185,-4.9196,-4.923,-4.9069,-4.9069,-4.9069,-4.9069,-4.8646,-4.8725,-4.8733,-4.8857,-4.8887,-4.8992,-4.9067,-4.9068,-4.917,-4.913,-4.9166,-4.9116,-4.9213,-4.9245,-4.9073,-4.9072,-4.9072,-4.9071,-4.9071,-4.874,-4.8783,-4.8825,-4.8942,-4.9029,-4.9078,-4.9175,-4.92,-4.9224,-4.926,-4.9299,-4.9299,-4.9298,-4.9278,-4.9278,-4.9279,-4.9279,-4.9279,-4.928,-4.882,-4.8867,-4.8945,-4.9035,-4.9089,-4.9163,-4.9239,-4.9293,-4.9358,-4.9368,-4.9369,-4.9368,-4.9219,-4.9179,-4.9286,-4.9285,-4.9284,-4.9284,-4.9283,-4.8985,-4.8952,-4.9073,-4.9127,-4.9235,-4.9319,-4.9352,-4.9459,-4.9507,-4.9554,-4.9549,-4.9436,-4.9433,-4.9422,-4.9388,-4.9544,-4.9544,-4.9544,-4.9544,-4.9061,-4.9064,-4.9193,-4.9278,-4.9364,-4.9406,-4.9542,-4.9603,-4.9661,-4.9693,-4.9675,-4.9634,-4.9622,-4.9627,-4.9612,-4.958,-4.9781,-4.9781,-4.9781,-4.9163,-4.9175,-4.9285,-4.9342,-4.9429,-4.9502,-4.963,-4.9727,-4.9787,-4.9791,-4.9717,-4.9707,-4.9642,-4.962,-4.9616,-4.9592,-4.9535,0,0]},{"header":{"parameterUnit":"m.s-1","parameterCategory":1,"la1":30.2992,"la2":30.254,"lo1":-89.0895,"lo2":-89.0443,"dy":0.0025,"dx":0.0025,"nx":19,"ny":19,"refTime":"2026-05-16T09:00:00:Z","depth":0,"parameterNumber":3,"parameterNumberName":"V-component_of_WINDS"},"data":[0,0,0,3.2767,3.2768,3.2827,3.2827,3.2905,3.2906,0,0,0,0,0,0,0,0,0,0,0,3.2753,3.2753,3.2767,3.2768,3.2826,3.2827,3.2905,3.2906,0,0,0,0,0,0,0,0,0,0,0,3.2753,3.2753,3.2754,3.2769,3.2826,3.2827,3.2905,3.2859,0,0,0,0,0,0,0,0,0,0,3.2802,3.2792,3.2753,3.2754,3.2769,3.2826,3.2827,3.2857,3.2862,3.2881,0,3.2899,0,3.2904,3.2911,3.2912,0,0,0,3.2766,3.2788,3.2801,3.2754,3.277,3.2826,3.2799,3.286,3.2865,3.2887,3.29,3.2903,3.2905,3.2912,3.2912,3.3032,3.3033,0,0,3.2762,3.2765,3.2797,3.2805,3.2797,3.2798,3.2801,3.2863,3.2876,3.29,3.2904,3.2906,3.2912,3.2913,3.3032,3.3033,0,0,0,3.2755,3.2762,3.2774,3.2802,3.2812,3.2799,3.2804,3.2874,3.2877,3.2905,3.2907,3.2913,3.2914,3.3031,3.3032,3.3069,0,0,0,3.2753,3.2758,3.2773,3.2775,3.2811,3.2844,3.2813,3.2873,3.288,3.2907,3.2913,3.2915,3.303,3.3032,3.3067,3.3086,0,0,0,3.2748,3.2757,3.2767,3.2775,3.28,3.2843,3.285,3.2874,3.2881,3.2912,3.2915,3.303,3.3031,3.3064,3.3082,3.3119,0,0,0,3.2743,3.2798,3.2768,3.283,3.2799,3.2866,3.2849,3.2898,3.2929,3.2913,3.303,3.3032,3.3063,3.308,3.3116,3.315,3.3165,0,0,3.2813,3.2806,3.2843,3.2818,3.2891,3.2857,3.2934,3.2959,3.2959,3.3008,3.3011,3.3067,3.3082,3.3118,3.3245,3.3256,0,0,0,3.2866,3.2893,3.2911,3.2942,3.2964,3.2984,3.2997,3.3007,3.3048,3.2985,3.3091,3.3099,3.312,3.3136,3.3146,3.3165,3.304,3.3039,3.3039,3.2968,3.2968,3.3029,3.3035,3.3065,3.3079,3.3103,3.3118,3.3107,3.3132,3.3146,3.3224,3.3242,3.325,3.3269,3.3164,3.3165,3.3165,3.3165,3.3072,3.3109,3.3096,3.315,3.3149,3.3194,3.3211,3.3202,3.3244,3.3212,3.3231,3.3196,3.3262,3.3279,3.3168,3.3167,3.3167,3.3166,3.3166,3.3138,3.3156,3.3168,3.3214,3.3248,3.3253,3.3295,3.3292,3.3289,3.3307,3.3322,3.3322,3.3321,3.3315,3.3315,3.3316,3.3316,3.3316,3.3316,3.3202,3.3215,3.3251,3.3281,3.3301,3.3327,3.3344,3.3363,3.3383,3.3378,3.3378,3.3365,3.3269,3.3245,3.332,3.332,3.3319,3.3319,3.3318,3.3306,3.3283,3.3338,3.3359,3.3395,3.343,3.3427,3.3467,3.3482,3.3503,3.3487,3.3417,3.3409,3.3401,3.3381,3.3487,3.3487,3.3487,3.3487,3.3362,3.3359,3.3416,3.3449,3.3481,3.3485,3.3548,3.3562,3.3573,3.3582,3.3567,3.3541,3.3533,3.3529,3.3519,3.35,3.3633,3.3634,3.3634,3.3426,3.3426,3.3481,3.3493,3.3521,3.3545,3.3605,3.3643,3.365,3.364,3.359,3.3584,3.3541,3.3527,3.3514,3.3498,3.3464,0,0]}]]